Flag for U.S.A. Weather past 2 weeks in Rapid City, South Dakota, U.S.A.

Now
54 °F

Clear.


Feels Like: 52 °F
Forecast: 53 / 80 °F
Wind: 6 mph from Southwest

Location: Ellsworth Air Force Base

Current Time: Oct 21, 2014 at 8:04:20 AM

Latest Report: Oct 21, 2014 at 6:58 AM


Visibility: 7 mi

Pressure: 29.80 "Hg

Humidity: 58%

Dew point: 39 °F

Location of Rapid CityLocation

Historic Weather in Rapid City — Graph

°F

Rapid City temperature yesterday

Maximum temperature yesterday: 76 °F (at 3:58 PM)
Minimum temperature yesterday: 46 °F (at 12:58 AM)
Average temperature yesterday: 59 °F

Past Weeks' High & Low Weather Summary

 TemperatureHumidityPressure
High80 °F (Oct 15, 12:58 PM)94% (Oct 12, 3:58 PM)30.29 "Hg (Oct 12, 3:58 PM)
Low37 °F (Oct 13, 11:58 PM)18% (Oct 15, 12:58 PM)29.53 "Hg (Oct 12, 3:58 AM)
Average54 °F59%29.97 "Hg
* Reported Oct 6 6:58 AM — Oct 21 6:58 AM, Rapid City, Weather by CustomWeather, © 2014

Note: Actual official high and low records may vary slightly from our data, if they occured in-between our weather recording intervals... More about our weather records

Advertising

Rapid City weather history for previous 24 hours

 ConditionsComfort  
Time TempWeatherWind HumidityBarometerVisibility
6:58 AM
Oct 21
54 °FClear.6 mph58%29.80 "Hg7 mi
5:58 AM52 °FClear.3 mph62%29.80 "Hg10 mi
4:58 AM53 °FClear.3 mph61%29.79 "Hg10 mi
3:58 AM53 °FClear.3 mph63%29.80 "Hg10 mi
2:58 AM56 °FClear.5 mph57%29.79 "Hg10 mi
1:58 AM58 °FClear.8 mph54%29.80 "Hg10 mi
12:58 AM59 °FClear.10 mph56%29.80 "Hg10 mi
11:58 PM
Oct 20
58 °FClear.8 mph60%29.82 "Hg10 mi
10:58 PM61 °FClear.9 mph54%29.85 "Hg10 mi
9:58 PM61 °FClear.9 mph55%29.89 "Hg10 mi
8:58 PM62 °FClear.6 mph54%29.88 "Hg10 mi
7:58 PM62 °FClear.3 mph54%29.89 "Hg10 mi
6:58 PM64 °FSunny.No wind52%29.89 "Hg10 mi
5:58 PM68 °FSunny.6 mph46%29.89 "Hg9 mi
4:58 PM75 °FSunny.12 mph37%29.88 "Hg10 mi
3:58 PM76 °FSunny.17 mph34%29.88 "Hg10 mi
2:58 PM75 °FSunny.20 mph33%29.89 "Hg10 mi
1:58 PM74 °FSunny.20 mph33%29.91 "Hg10 mi
12:58 PM72 °FSunny.16 mph37%29.95 "Hg10 mi
11:58 AM68 °FSunny.16 mph43%29.99 "Hg10 mi
10:58 AM64 °FSunny.10 mph49%30.00 "Hg10 mi
9:58 AM59 °FSunny.13 mph55%30.03 "Hg30 mi
9:32 AM55 °FSunny.8 mph59%30.03 "Hg30 mi
8:58 AM52 °FSunny.9 mph67%30.04 "Hg10 mi
Weather by CustomWeather, © 2014

See weather overviewHow to use our weather pages